weather.gov     
National Weather Service

Terminal Aerodrome Forecast
NWS Homepage
This page is being discontinued on March 12, 2014.
The same data is available at this site. Please update your bookmarks.
Thank you, and we apologize for the inconvenience.
Please send an email to SR-SRH.Webmaster@noaa.gov with any concerns.


Current Version
Previous Version:    01  02  03  04  05  06  07  08  09  10  11  12  13  14  15  16  17  18  19  20  21  22  23  24  25  26  27  28  29  30  
   31  32  33  34  35  
[Printable]
302
FTUS46 KPQR 270539
TAFSLE
TAF
KSLE 270539Z 2706/2806 14007KT P6SM BKN200
     FM270700 18012KT P6SM OVC120
     FM271100 18011KT P6SM -RA OVC050
     FM271400 19012G20KT 6SM -RA BR SCT015 OVC035
     FM271700 19010KT 5SM -SHRA BR BKN018 OVC025=




302
FTUS46 KPQR 270539
TAFSLE
TAF
KSLE 270539Z 2706/2806 14007KT P6SM BKN200
     FM270700 18012KT P6SM OVC120
     FM271100 18011KT P6SM -RA OVC050
     FM271400 19012G20KT 6SM -RA BR SCT015 OVC035
     FM271700 19010KT 5SM -SHRA BR BKN018 OVC025=


U.S. Dept. of Commerce
NOAA National Weather Service
1325 East West Highway
Silver Spring, MD 20910
E-mail: w-nws.webmaster@noaa.gov
Page last modified: May 16, 2007
NATIONAL WEATHER SERVICE: for Safety, for Work, for Fun - FOR LIFE